sat.trackr.live / text

‹ back to catalog

IRIDE FM4

NORAD 66698 · 2025-276AJ

PAYLOAD ACTIVE UNKNOWN

§ Identity

Operator
Country
IT
Launch date
2025-11-28
Launch site
AFWTR
Launch vehicle
Mass (kg)
RCS (m²)

External: N2YO · Heavens-Above · Gunter

§ Orbital elements

Epoch: 2026-05-25T02:33:49.020768Z

Period
94.77 min
Inclination
97.4188°
Eccentricity
0.0005714
Mean motion
15.19444921 rev/d
Perigee alt
503.6 km
Apogee alt
511.5 km
Semi-major
6,885.7 km
B*
2.4974e-4
RAAN
218.9675°
Arg perigee
91.6179°
Mean anomaly
268.5710°
Rev number
2,691

§ Raw data

IRIDE FM41 66698U 25276AJ  26145.10681737  .00005228  00000+0  24974-3 0  99932 66698  97.4188 218.9675 0005714  91.6179 268.5710 15.19444921 26919

JSON: /api/v1/satellites/66698 · /tle

For live sub-satellite position, see the globe view (requires WebGL).

§ Visibility from observer

Set your observer location to see the next 7 days of passes ≥ 10°. The values pass through the URL so the page stays shareable.

No JS? Fill the form by hand. The geolocation button needs JavaScript.

§ Radio — SatNOGS DB

ModeDescriptionDownlinkUplink
FM S-band telemetry 2.260 GHz

1 transmitter · refreshed weekly from db.satnogs.org